sat.trackr.live / text

‹ back to catalog

STARLINK-6198

NORAD 56768 · 2023-078B

PAYLOAD ACTIVE UNKNOWN

§ Identity

Operator
Country
US
Launch date
2023-05-31
Launch site
AFWTR
Launch vehicle
Mass (kg)
RCS (m²)

Purposes: comms

External: N2YO · Heavens-Above · Gunter

§ Orbital elements

Epoch: 2026-05-25T02:33:21.159360Z

Period
96.11 min
Inclination
69.9988°
Eccentricity
0.0003515
Mean motion
14.98326275 rev/d
Perigee alt
569.6 km
Apogee alt
574.5 km
Semi-major
6,950.2 km
B*
1.1365e-4
RAAN
131.6469°
Arg perigee
264.7801°
Mean anomaly
95.2956°
Rev number
16,462

§ Raw data

STARLINK-61981 56768U 23078B   26145.10649490  .00001263  00000+0  11365-3 0  99932 56768  69.9988 131.6469 0003515 264.7801  95.2956 14.98326275164627

JSON: /api/v1/satellites/56768 · /tle

For live sub-satellite position, see the globe view (requires WebGL).

§ Visibility from observer

Set your observer location to see the next 7 days of passes ≥ 10°. The values pass through the URL so the page stays shareable.

No JS? Fill the form by hand. The geolocation button needs JavaScript.